Cartersville, GA

6:04 PM EST on November 11, 2019 (GMT -0500)
Cartersville

Weather History for KVPC - September, 2019

Change the Weather History Date:

Monday, September 23, 2019

  Actual Average Record
Temperature  
Mean Temperature 76 °F 69 °F  
Max Temperature 93 °F 80 °F 93 °F (2010)
Min Temperature 57 °F 57 °F 48 °F (2012)
Degree Days  
Heating Degree Days 0 1  
Month to date heating degree days 0 5  
Since 1 July heating degree days 0 5  
Cooling Degree Days 10 5  
Month to date cooling degree days 345 183  
Year to date cooling degree days 1917 1448  
Growing Degree Days 26 (Base 50)    
Moisture  
Dew Point 58 °F    
Average Humidity 60    
Maximum Humidity 93    
Minimum Humidity 30    
Precipitation  
Precipitation 0.00 in 0.13 in 2.26 in (1969)
Month to date precipitation 0.01 2.70  
Year to date precipitation 31.55 37.29  
Sea Level Pressure  
Sea Level Pressure 30.04 in    
Wind  
Wind Speed 1 mph ()    
Max Wind Speed 10 mph    
Max Gust Speed 14 mph    
Visibility 9.8 miles    
Events      
T = Trace of Precipitation, MM = Missing Value Source: Averaged Metar Reports

Daily Weather History Graph

Daily Weather History Graph

Search for Another Location

Airport or City:

Astronomy

Sep. 23, 2019 Rise Set
Actual Time 7:28 AM EDT 7:35 PM EDT
Civil Twilight 7:03 AM EDT 8:00 PM EDT
Nautical Twilight 6:33 AM EDT 8:29 PM EDT
Astronomical Twilight 6:04 AM EDT 8:58 PM EDT
Moon 1:27 AM EDT (9/23) 4:11 PM EDT (9/23)
Length of Visible Light 12h 56m
Length of Day
12h 07m
Waning Crescent, 33% of the Moon is Illuminated
Sep 23
Waning Crescent
Sep 28
New
Oct 5
First Quarter
Oct 13
Full
Oct 21
Last Quarter

Hourly Weather History & Observations

Time (EDT) Temp. Heat Index Dew Point Humidity Pressure Visibility Wind Dir Wind Speed Gust Speed Precip Events Conditions
12:53 AM 61.0 °F - 55.9 °F 83% 30.09 in 10.0 mi Calm Calm - N/A   Clear
1:53 AM 62.1 °F - 57.0 °F 84% 30.09 in 10.0 mi Calm Calm - N/A   Clear
2:53 AM 60.1 °F - 55.9 °F 86% 30.09 in 10.0 mi Calm Calm - N/A   Clear
3:53 AM 57.9 °F - 55.0 °F 90% 30.08 in 10.0 mi Calm Calm - N/A   Clear
4:53 AM 60.1 °F - 55.9 °F 86% 30.09 in 10.0 mi Calm Calm - N/A   Clear
5:53 AM 57.9 °F - 55.0 °F 90% 30.09 in 10.0 mi Calm Calm - N/A   Clear
6:53 AM 57.0 °F - 54.0 °F 89% 30.09 in 10.0 mi Calm Calm - N/A   Clear
7:53 AM 57.0 °F - 54.0 °F 89% 30.11 in 6.0 mi Calm Calm - N/A   Clear
8:53 AM 66.0 °F - 60.1 °F 81% 30.11 in 10.0 mi Calm Calm - N/A   Clear
9:53 AM 75.0 °F - 62.1 °F 64% 30.11 in 10.0 mi Calm Calm - N/A   Clear
10:53 AM 81.0 °F 81.1 °F 57.9 °F 45% 30.11 in 10.0 mi Calm Calm - N/A   Clear
11:53 AM 86.0 °F 84.7 °F 55.9 °F 36% 30.09 in 10.0 mi Variable 5.8 mph - N/A   Clear
12:53 PM 90.0 °F 88.6 °F 57.0 °F 33% 30.07 in 10.0 mi Variable 4.6 mph - N/A   Clear
1:53 PM 89.1 °F 87.3 °F 55.9 °F 32% 30.04 in 10.0 mi Variable 4.6 mph - N/A   Clear
2:53 PM 93.0 °F 91.7 °F 57.0 °F 30% 30.01 in 10.0 mi North 9.2 mph - N/A   Clear
3:53 PM 93.0 °F 92.0 °F 57.9 °F 31% 29.99 in 10.0 mi Variable 4.6 mph - N/A   Scattered Clouds
4:53 PM 90.0 °F 88.8 °F 57.9 °F 34% 29.97 in 10.0 mi Calm Calm - N/A   Clear
5:53 PM 91.9 °F 91.2 °F 59.0 °F 33% 29.96 in 10.0 mi North - - N/A   Partly Cloudy
6:53 PM 89.1 °F 88.2 °F 59.0 °F 36% 29.97 in 10.0 mi Calm Calm - N/A   Mostly Cloudy
7:53 PM 82.0 °F 83.0 °F 62.1 °F 51% 29.96 in 10.0 mi Calm Calm - N/A   Overcast
8:53 PM 80.1 °F 81.2 °F 62.1 °F 54% 29.97 in 10.0 mi Calm Calm - N/A   Overcast
9:53 PM 79.0 °F - 64.0 °F 60% 29.97 in 10.0 mi Calm Calm - N/A   Overcast
10:53 PM 78.1 °F - 64.0 °F 62% 29.97 in 10.0 mi Calm Calm - N/A   Overcast
11:53 PM 78.1 °F - 64.0 °F 62% 29.96 in 10.0 mi Calm Calm - N/A   Overcast